Theta_e
316 319 319 319 318 317 318 321 323 322 322 322 323 327 327 322 318 317 318 315 311 316 320 318 318 317 317 316 312 312 315 311 311 312 313 315 315 315 316 315 316 316 316 317 317 317 317 317 317 317 318 317 317 317 317 317 317 317 317 317 317 316 316 317 316 315 314 314 314 314 314 313 313 313 315 316 316 316 317 317 319 321 322 327 332 332
319 318 320 324 321 317 317 319 318 316 319 322 324 326 323 319 318 315 317 318 312 314 321 318 318 318 317 316 312 311 312 311 312 312 312 314 314 315 315 314 315 315 316 316 316 317 317 317 317 317 317 317 317 318 317 317 317 317 317 316 316 315 316 316 316 315 314 314 314 314 314 313 312 313 313 314 315 316 316 316 318 319 320 327 333 332
321 320 322 323 315 313 315 316 318 320 325 328 325 323 321 318 317 316 318 321 316 316 323 322 319 319 317 316 313 310 311 313 313 312 312 314 314 314 315 314 314 315 315 316 316 317 317 317 317 317 318 317 317 318 317 317 317 317 317 317 316 316 316 316 316 315 314 314 314 313 313 313 312 312 313 314 315 316 317 316 317 319 320 325 330 330
319 321 321 314 310 313 316 317 319 321 324 328 325 320 321 320 319 319 319 320 317 315 320 322 320 318 316 318 318 313 311 313 314 314 314 314 314 315 316 314 314 315 315 316 316 317 317 317 317 317 318 318 318 318 318 318 318 317 317 317 316 316 316 316 316 316 315 315 314 314 313 312 312 312 313 314 315 316 316 316 316 318 319 323 329 331
320 318 313 311 315 321 318 317 322 320 316 323 332 331 324 322 321 321 321 319 316 315 318 319 318 323 326 326 329 322 313 313 314 315 316 315 316 317 316 314 314 315 316 316 317 317 317 317 318 318 318 318 318 318 318 318 318 318 318 317 317 316 316 316 316 316 316 315 314 314 313 312 312 312 312 313 314 314 315 315 315 315 316 318 323 328
319 314 312 315 321 326 322 320 324 325 317 316 327 331 325 326 326 324 326 322 318 316 317 315 315 328 335 329 329 329 323 321 316 313 316 317 317 316 316 316 316 316 316 317 317 317 318 318 318 319 319 319 319 319 318 319 318 318 318 317 317 317 316 316 316 316 315 315 314 313 313 312 312 312 312 312 312 313 313 314 314 314 313 314 318 323
317 313 316 322 326 326 323 321 320 323 321 313 317 323 326 332 330 327 324 319 319 316 314 315 315 321 326 322 321 322 320 319 315 311 314 316 317 315 316 317 317 317 317 317 318 318 319 318 319 319 319 319 318 319 318 318 318 318 318 318 317 317 316 316 316 315 315 315 314 313 313 312 312 312 312 311 312 312 313 313 314 313 313 315 318 320
317 318 319 324 330 326 321 320 318 321 322 315 317 323 328 330 328 330 326 319 321 318 318 322 320 318 322 322 319 315 314 316 316 316 315 314 315 316 316 317 317 317 318 318 319 319 319 319 319 318 318 319 318 318 318 318 318 318 317 317 317 316 316 316 316 315 315 314 314 313 313 313 312 312 312 311 311 312 312 313 313 312 313 315 316 316
316 322 321 324 330 325 322 322 319 324 325 318 318 323 327 327 329 334 331 326 322 316 320 326 318 317 325 328 322 314 316 320 321 323 318 312 314 316 317 317 317 318 318 319 319 318 318 319 318 318 318 318 318 318 318 318 317 317 317 317 316 316 316 316 315 315 315 314 314 314 313 313 313 312 312 311 311 311 311 311 312 312 313 315 316 316
314 318 318 322 325 323 323 321 318 327 327 318 317 322 325 327 330 331 328 326 321 315 322 327 318 315 323 329 323 314 318 324 321 320 314 311 314 316 317 318 318 319 319 319 319 318 318 318 318 318 318 318 318 317 317 317 317 317 317 317 316 316 316 316 315 315 315 314 314 314 313 313 313 312 312 311 311 310 310 311 311 312 313 315 317 317
314 313 314 316 319 318 318 316 315 320 317 314 321 327 326 327 330 331 330 325 317 317 326 327 319 314 317 327 326 317 321 323 318 319 318 314 315 316 318 318 319 320 320 319 319 318 318 318 318 318 318 318 318 317 317 317 317 317 317 316 316 316 316 315 315 315 315 314 314 314 314 313 313 313 312 312 311 311 310 310 311 312 313 315 316 317
315 315 315 314 313 313 317 317 314 315 314 316 328 329 322 326 329 330 330 324 317 321 327 325 320 313 314 325 326 320 322 321 317 322 325 319 316 317 319 320 320 321 320 319 318 317 318 317 318 317 317 318 317 317 317 317 317 317 316 316 316 316 316 315 315 315 314 314 314 314 313 313 313 313 312 312 312 311 311 310 311 311 313 315 316 316
318 319 315 313 313 314 321 324 317 319 322 321 324 324 317 321 323 323 326 323 321 321 318 320 321 316 316 321 322 320 321 321 316 317 320 318 316 319 321 320 321 320 319 318 317 318 318 318 318 317 317 317 317 317 317 317 317 316 316 316 316 316 316 315 315 315 314 314 314 314 314 313 313 313 312 312 312 311 311 310 311 311 313 314 316 316
320 323 316 315 316 315 319 323 319 321 324 320 319 320 319 319 318 321 324 320 319 321 317 316 318 319 320 320 322 323 317 315 314 313 315 316 316 319 319 320 321 320 320 318 317 318 317 318 317 317 318 317 317 318 317 317 317 316 317 316 317 316 316 315 315 314 315 314 314 314 313 313 313 312 312 312 311 311 311 310 310 311 312 313 315 316
319 322 320 318 317 317 317 319 322 323 321 319 319 317 318 322 322 322 324 320 319 322 318 315 318 325 325 319 318 317 312 313 315 315 316 315 316 317 317 320 321 320 320 317 317 318 317 318 317 317 318 317 318 318 317 317 317 317 317 317 317 317 316 316 315 314 314 314 314 314 313 313 313 312 312 312 311 311 311 310 310 310 312 313 314 316
316 318 321 316 313 317 318 315 317 321 320 318 317 315 315 321 323 319 318 320 321 321 319 317 321 327 323 317 315 311 310 314 315 315 317 316 316 316 315 318 319 319 319 317 318 318 317 317 317 317 317 317 318 318 318 318 317 317 317 317 317 317 317 316 315 315 314 314 314 313 313 313 312 312 312 311 311 311 311 310 310 309 310 312 314 315
316 317 317 314 313 315 316 313 313 316 319 317 316 320 319 317 322 321 314 314 316 317 318 318 320 322 317 315 319 314 313 316 316 314 315 316 317 315 313 316 317 318 318 317 318 317 317 317 316 317 317 317 317 317 318 318 317 318 317 317 317 317 317 317 316 316 315 314 314 314 314 313 312 312 312 311 311 310 310 310 310 309 309 312 314 315
320 320 316 315 317 313 311 312 312 311 315 320 320 322 318 312 319 324 318 318 318 316 319 317 316 318 315 317 323 318 314 317 320 317 315 316 317 314 314 314 315 318 317 317 318 317 317 317 317 317 317 317 317 317 317 317 317 317 317 317 317 317 317 317 316 316 315 315 315 314 314 313 313 312 311 311 310 310 310 310 310 309 309 312 313 315
319 319 315 313 317 314 312 315 317 313 312 317 319 316 317 319 321 320 317 320 319 317 321 320 315 314 315 317 320 316 315 320 321 319 318 316 314 314 316 314 313 317 317 317 318 317 317 317 317 317 317 317 317 316 317 317 317 317 316 317 317 317 317 317 317 316 316 315 315 315 314 313 313 312 312 311 310 310 310 309 310 309 309 312 313 314
316 316 315 313 314 314 314 317 320 319 314 314 315 313 317 323 322 320 318 317 318 317 319 321 317 317 318 319 319 315 317 320 317 319 319 312 311 315 315 314 314 316 317 317 318 317 317 317 317 317 317 317 317 317 317 317 317 317 317 317 316 316 317 317 317 316 316 316 315 314 314 314 313 313 312 311 310 310 310 309 309 309 309 311 312 312
315 313 313 314 313 314 318 318 318 320 318 317 318 317 318 318 318 321 319 317 320 321 321 319 316 322 325 320 318 317 319 319 315 318 317 309 311 315 314 315 316 315 317 318 318 318 317 317 317 317 317 317 316 317 317 317 317 317 317 317 317 317 317 316 317 316 316 315 315 315 315 314 313 313 312 312 311 311 310 310 309 309 308 309 310 310
315 313 317 318 317 317 319 317 314 317 319 317 317 318 318 318 318 319 317 316 317 319 321 319 314 321 326 320 319 321 322 318 311 311 313 311 313 316 316 317 317 316 317 318 317 318 317 317 317 316 316 316 316 317 317 317 317 317 317 317 317 317 317 316 316 316 316 315 315 315 315 314 314 313 312 312 312 311 311 310 309 309 309 309 309 309
313 317 323 321 319 319 317 312 309 313 317 316 316 318 318 318 318 319 321 320 318 315 318 319 317 317 319 319 320 320 316 312 310 310 313 314 316 318 317 317 318 318 318 318 318 317 317 317 317 316 316 316 316 317 317 317 317 317 317 317 317 317 317 317 316 316 316 315 315 315 314 314 314 313 313 312 312 312 311 311 310 309 309 309 309 309
312 318 321 317 318 320 319 315 311 311 315 315 317 319 319 319 320 325 328 324 321 320 317 318 318 317 318 316 312 310 310 311 313 314 315 317 318 318 318 318 319 318 318 318 318 317 317 317 316 316 316 316 316 316 317 317 317 317 317 317 317 317 317 317 316 316 316 315 315 315 314 314 314 313 313 313 312 312 311 311 310 309 309 309 309 309
313 318 318 317 318 320 321 321 317 315 315 317 321 320 319 321 321 321 321 317 318 323 321 319 317 317 322 321 312 313 317 315 313 314 316 317 318 317 318 319 318 318 317 317 317 317 317 316 316 316 316 316 316 316 316 317 317 317 317 316 316 316 317 317 316 316 315 315 315 315 314 314 313 313 313 313 312 312 311 311 310 309 309 308 308 309
315 318 316 316 316 315 317 318 318 318 316 318 323 322 318 320 320 317 318 317 317 321 320 318 316 315 319 322 319 322 326 319 314 314 315 315 315 316 317 317 317 316 316 316 315 316 316 315 316 316 316 316 316 316 316 316 316 316 316 316 316 316 316 316 316 315 315 315 315 315 315 314 313 313 313 313 312 312 311 311 311 310 309 308 308 309
321 320 314 313 314 314 314 315 319 321 319 318 321 320 316 317 318 317 318 318 317 318 317 316 315 315 316 317 318 321 325 327 320 313 313 314 314 316 316 315 316 316 315 315 315 315 316 315 316 315 316 316 316 316 316 316 317 317 316 316 316 316 316 316 316 316 315 315 315 315 315 314 314 313 312 312 312 312 311 311 311 310 309 308 307 308
324 319 314 314 314 313 313 315 319 320 318 318 318 318 317 316 316 317 318 317 316 317 318 316 315 316 314 314 315 316 321 326 319 312 313 315 314 315 316 316 316 315 315 316 315 315 315 315 315 316 316 316 316 316 317 316 317 316 316 316 316 316 316 316 316 316 316 315 315 315 315 314 314 313 312 312 312 311 311 311 310 310 310 309 307 307
321 318 316 316 314 313 314 316 319 318 317 317 317 317 318 316 315 316 316 316 316 316 316 315 316 316 314 313 314 313 313 316 315 313 314 314 314 315 315 315 316 315 315 315 315 315 315 315 316 316 316 316 316 316 316 315 316 315 315 315 315 315 315 315 315 316 315 316 315 315 315 314 313 313 312 312 311 311 311 311 311 310 309 309 308 307
317 321 320 316 314 315 314 316 318 317 316 317 316 316 317 316 315 315 315 315 315 315 315 315 316 315 313 313 314 312 311 311 312 313 313 313 314 315 314 315 315 314 315 315 315 315 315 315 315 315 315 315 315 315 315 315 314 314 314 314 314 314 314 314 315 315 315 315 315 315 315 314 314 313 312 312 311 311 311 310 310 310 309 309 309 308
314 322 322 316 315 316 314 314 316 316 316 317 317 315 315 315 315 315 315 315 315 315 315 315 315 314 312 312 312 311 311 311 311 312 313 314 315 314 314 314 314 314 314 314 314 315 315 315 315 314 314 314 313 313 313 313 313 313 313 313 312 313 313 313 314 314 314 315 314 315 314 314 314 314 313 313 312 311 310 310 309 309 309 309 309 308
314 318 319 316 316 316 315 315 315 315 315 315 317 316 314 314 315 315 315 315 315 315 316 315 315 315 313 312 311 310 310 311 312 313 314 314 314 313 313 313 313 313 313 314 314 314 314 314 314 314 313 313 313 313 312 312 312 312 312 312 312 312 312 312 312 312 313 313 314 314 314 314 314 314 313 313 312 311 310 309 309 309 309 309 308 308
316 317 318 318 317 316 317 318 315 315 315 315 315 315 314 313 313 313 314 315 315 315 316 316 315 314 315 315 315 314 313 311 312 313 313 313 312 312 312 312 312 312 312 312 312 312 312 312 312 312 312 312 312 312 312 312 312 312 312 312 312 312 312 311 311 311 311 311 312 312 313 313 313 313 313 312 312 311 310 309 309 309 309 309 308 308
316 316 318 318 316 316 318 318 316 315 315 315 315 315 315 314 313 313 314 314 314 314 315 315 315 314 315 316 317 318 316 313 311 311 312 312 312 312 311 311 311 310 310 310 310 310 311 311 311 311 311 311 311 312 312 312 312 312 312 312 312 312 312 312 312 311 311 311 311 311 311 312 312 312 313 312 311 310 310 310 310 309 309 308 308 307
317 315 316 318 317 317 318 317 316 316 316 316 320 320 316 313 314 314 314 313 313 314 314 314 315 315 314 313 313 313 312 311 311 310 310 310 310 311 310 310 310 310 310 310 310 310 310 310 311 311 311 311 311 311 311 311 311 312 311 312 312 311 312 312 312 312 312 311 311 311 311 311 311 311 312 312 311 310 310 310 310 309 308 308 307 307
316 315 316 318 319 319 318 316 316 318 318 319 322 321 316 314 315 315 315 315 313 313 314 314 314 313 312 311 311 311 310 310 309 308 308 309 309 309 309 309 309 309 309 309 309 310 310 310 311 311 311 311 311 311 311 311 311 311 311 311 311 311 311 311 311 311 311 312 312 312 311 311 311 310 311 311 310 311 311 310 309 308 307 307 307 306
315 316 316 317 318 317 317 316 316 318 319 318 319 318 315 314 317 317 316 316 315 313 312 313 313 313 312 311 311 312 310 309 309 307 306 307 308 308 309 308 308 308 308 308 309 309 309 309 309 310 310 309 309 309 309 309 309 310 310 310 310 310 310 310 310 310 311 311 311 311 311 311 311 310 310 310 310 310 310 309 308 307 306 306 306 306
315 315 315 317 317 316 316 316 317 318 318 316 317 318 314 312 314 316 316 318 318 314 311 312 314 314 312 310 309 309 310 312 313 309 305 306 307 308 308 308 308 308 308 308 308 308 308 308 308 308 308 308 308 307 307 307 307 307 308 308 308 308 309 309 309 309 310 310 310 310 310 311 310 310 310 309 309 309 309 308 308 307 305 305 305 305
313 313 314 315 317 317 317 317 317 318 318 317 321 321 315 311 312 313 314 318 318 311 307 310 313 311 310 308 306 308 312 316 316 310 305 305 307 306 307 307 307 307 307 307 307 307 307 307 307 307 307 307 307 307 306 306 306 306 306 306 306 307 307 308 308 308 309 309 309 309 310 310 310 310 310 309 309 308 307 307 307 306 305 304 304 304
313 313 313 314 316 317 316 317 317 317 317 319 321 318 312 310 311 314 317 319 313 306 305 309 309 307 308 308 307 310 314 316 314 308 305 306 306 306 306 306 306 306 306 306 306 306 306 306 306 306 306 306 306 306 306 306 306 306 306 305 305 306 306 306 307 307 308 309 309 309 309 309 309 309 309 309 308 308 307 306 306 305 304 303 303 303
312 313 313 314 315 315 316 317 317 317 319 321 318 312 309 310 313 316 319 316 309 304 306 308 307 307 308 308 308 309 310 309 308 307 305 305 305 305 305 305 305 305 305 305 306 305 306 306 306 306 306 306 306 306 306 306 306 306 306 305 305 305 305 305 306 307 308 308 309 309 309 308 308 308 308 309 308 308 307 306 305 305 304 303 302 302
313 313 313 314 315 315 316 316 316 317 319 318 313 309 309 314 317 316 313 309 305 304 306 307 306 306 307 307 308 307 305 305 306 306 305 305 305 305 305 305 305 305 305 305 304 304 304 304 304 304 304 305 305 305 305 305 305 305 305 305 305 305 305 305 305 306 307 308 308 309 309 308 308 308 308 308 308 307 307 306 305 304 303 302 301 301
314 314 314 314 314 315 315 315 317 318 315 312 311 312 313 316 316 311 306 304 305 306 305 305 305 305 305 306 305 305 304 304 305 305 304 305 304 304 304 304 304 304 303 303 303 303 303 302 302 303 303 303 304 304 304 304 304 304 304 304 304 304 304 304 305 305 306 307 307 308 308 308 308 307 307 307 307 307 307 306 305 304 303 302 301 300
314 315 315 314 314 315 315 316 315 314 311 309 312 315 314 313 312 308 305 304 305 305 305 304 304 303 304 305 304 304 304 304 304 304 304 304 304 303 303 303 303 303 302 302 302 301 301 301 301 301 302 302 302 302 303 303 303 303 303 303 303 303 303 304 304 304 305 305 306 307 307 307 307 306 305 305 305 306 306 306 305 304 303 301 300 299
313 312 313 315 314 312 313 314 311 306 305 307 309 309 309 309 308 308 308 306 304 305 305 304 303 303 303 304 304 303 303 303 303 303 303 302 302 302 302 302 302 302 302 301 301 300 300 300 300 300 300 300 300 300 301 301 301 302 302 302 303 303 303 303 303 303 304 304 305 305 306 306 306 305 304 304 304 304 305 305 305 304 303 301 299 299
309 307 309 314 313 309 308 308 306 304 304 305 306 306 306 307 306 307 308 306 305 305 304 304 304 303 303 303 303 303 302 302 302 301 301 301 301 301 301 301 301 301 300 300 300 299 299 299 299 299 299 299 299 299 299 300 300 301 301 302 302 302 302 303 303 303 303 304 304 304 304 304 304 304 303 302 302 302 303 304 304 304 303 301 299 298
308 306 310 313 313 312 311 308 304 304 303 303 304 304 304 305 305 306 307 306 305 305 304 304 304 304 303 303 303 303 303 302 301 301 301 300 300 300 300 299 299 299 299 299 298 298 298 298 298 298 298 298 298 298 298 298 299 299 300 300 301 301 301 302 302 303 303 303 304 304 303 303 303 303 302 302 301 301 301 301 302 303 303 302 300 298
309 308 311 313 311 310 310 305 302 302 302 302 303 304 304 304 305 305 305 305 304 304 304 304 304 303 303 303 302 302 302 301 300 301 300 300 300 299 299 299 298 298 298 298 298 297 297 297 297 297 297 297 297 297 297 297 298 298 298 299 299 300 300 300 301 302 302 303 303 303 303 303 303 303 302 302 301 300 300 300 300 301 303 302 301 300
308 308 310 311 308 306 305 302 301 303 304 303 302 303 303 304 304 304 304 304 304 304 304 303 303 303 303 303 302 302 301 300 300 300 300 299 299 299 298 298 298 298 297 297 297 297 296 296 296 296 297 297 297 297 297 297 297 297 297 297 298 298 298 299 300 300 301 302 302 303 303 303 302 302 303 303 302 301 300 299 298 299 301 302 302 302
307 309 309 308 308 307 306 303 303 305 306 303 302 302 303 303 303 304 304 303 303 303 303 303 303 302 302 302 302 302 302 301 300 300 300 299 298 298 298 297 297 297 297 296 296 295 295 295 295 295 296 296 296 296 296 296 296 297 296 296 297 297 297 298 299 299 300 301 301 302 302 303 303 302 302 302 302 302 301 300 298 297 297 298 298 299
306 308 308 308 309 309 307 304 303 305 305 302 301 302 302 302 303 303 302 302 302 302 302 302 302 302 301 301 301 301 301 300 299 299 298 298 298 297 297 297 296 296 295 295 294 294 294 294 294 294 294 294 294 294 295 295 295 296 296 296 296 296 296 296 297 298 299 300 301 301 301 302 302 302 302 301 301 301 301 300 300 298 297 296 296 296
Wind_Speed
5 4 3 5 7 7 6 7 6 4 6 7 6 5 4 4 2 4 3 5 1 3 5 6 6 9 11 11 15 25 23 17 21 24 28 33 36 38 37 35 34 32 32 30 27 26 25 24 24 25 25 25 24 23 23 24 25 27 29 30 30 30 30 30 30 29 29 30 30 30 30 31 32 32 33 33 32 31 31 32 31 32 33 33 35 36
4 4 6 7 9 8 6 6 6 6 5 5 6 5 2 3 2 2 2 4 2 1 4 2 4 10 11 10 16 22 17 17 26 25 28 34 36 39 37 34 33 31 30 29 27 26 23 23 24 24 25 24 24 23 23 23 23 25 27 29 29 29 30 30 30 30 30 30 30 30 29 29 30 32 33 33 33 32 32 31 31 32 33 34 37 38
4 3 8 8 6 6 4 5 8 6 5 5 4 5 2 2 1 3 3 5 4 1 3 4 5 10 12 10 15 21 18 24 31 26 27 32 34 38 37 34 31 29 29 27 25 23 21 22 22 22 23 22 22 22 22 21 21 23 25 26 27 28 28 29 29 30 30 30 31 31 30 29 30 31 32 33 33 33 33 32 32 33 34 36 39 41
2 4 8 6 6 8 6 4 8 6 5 4 4 4 2 2 1 1 3 4 3 1 2 4 5 9 9 6 11 19 21 26 30 25 26 30 32 37 36 31 27 26 26 23 21 20 19 19 19 19 19 19 20 20 20 20 19 20 21 23 25 26 27 28 29 30 30 31 31 32 31 30 31 32 33 34 34 35 34 34 33 34 36 39 42 43
4 5 2 5 5 7 7 4 7 6 2 2 3 5 3 3 4 3 2 2 3 4 3 4 5 7 5 5 7 9 9 15 18 17 22 27 28 32 32 29 26 24 24 21 18 17 17 16 15 15 16 16 17 17 17 17 17 17 18 19 21 24 26 27 29 30 31 32 32 33 33 33 33 34 35 36 36 36 36 36 35 35 37 42 45 45
5 4 3 7 5 6 7 3 4 7 3 2 3 6 6 7 6 2 2 4 4 4 4 4 4 6 5 5 7 6 5 7 8 10 17 21 21 22 24 24 22 20 19 18 17 15 14 13 12 13 13 13 13 12 13 14 15 16 17 18 20 22 24 26 29 30 31 32 33 34 35 34 35 36 38 38 38 38 38 37 36 35 36 39 44 47
2 1 4 6 5 6 6 3 4 6 5 1 4 5 7 8 7 4 3 3 1 3 3 4 3 5 7 5 9 9 8 10 9 11 18 26 25 19 17 16 14 12 12 12 11 10 9 8 8 8 7 8 8 8 10 12 13 14 15 17 19 21 23 25 27 29 30 31 33 34 34 34 35 36 37 38 38 39 38 37 36 34 34 36 40 44
2 3 5 6 6 6 5 2 4 6 7 3 3 6 7 7 7 5 6 3 2 3 4 4 4 3 6 6 8 7 8 11 11 11 17 25 24 18 16 14 9 7 6 5 4 3 3 2 2 2 2 3 4 6 8 9 11 12 14 16 18 21 22 24 26 27 29 30 31 32 33 34 35 35 36 36 37 39 39 38 36 33 33 34 36 37
1 4 4 6 6 3 4 4 5 7 6 4 4 7 6 6 7 5 6 3 2 2 5 4 2 2 6 7 5 3 3 9 11 12 13 16 17 15 14 10 6 5 4 3 2 3 3 3 2 2 0 2 3 5 7 8 10 12 14 16 18 20 22 23 25 25 27 28 29 30 31 33 34 34 35 36 37 38 39 39 37 35 33 33 33 32
1 2 5 7 5 4 4 3 4 5 4 4 6 7 5 6 6 5 5 3 2 2 5 5 4 2 5 6 5 3 2 7 10 9 9 13 15 13 10 5 4 5 4 5 5 6 6 5 3 2 1 1 3 5 6 8 10 12 14 16 18 19 21 22 23 23 24 25 26 28 30 31 32 33 34 36 37 37 38 39 37 36 35 34 34 33
2 1 1 3 3 5 5 2 1 3 6 9 7 7 6 6 5 4 3 4 2 3 7 7 5 1 4 6 4 3 4 6 6 7 8 11 11 7 5 4 5 6 8 8 7 7 7 5 4 3 2 1 2 4 6 8 9 12 14 15 17 19 19 20 21 21 22 23 24 26 27 29 30 31 33 35 36 36 37 38 37 36 36 36 36 36
4 3 1 1 1 5 7 6 5 4 6 8 5 5 4 4 4 4 4 4 1 5 7 5 1 1 3 6 5 6 7 6 6 7 7 7 5 3 4 5 7 9 10 8 6 6 6 5 4 3 2 0 2 3 5 6 8 10 11 13 15 17 18 19 20 20 21 22 23 24 25 26 27 29 31 32 33 33 35 36 36 36 36 37 37 38
2 1 3 2 1 4 6 5 4 5 5 5 5 6 4 2 3 3 3 0 3 6 4 3 1 2 5 7 7 9 10 8 7 9 9 5 1 1 4 5 8 11 10 6 6 6 6 6 5 5 6 5 4 5 5 5 6 6 7 9 11 13 15 17 19 19 20 21 22 23 23 24 25 27 29 30 30 31 32 34 35 37 37 37 38 40
0 5 3 2 2 5 6 6 3 1 1 5 5 6 5 3 2 3 3 1 4 5 3 3 1 3 4 5 8 11 12 11 9 10 12 7 2 0 2 6 9 11 8 4 5 6 7 7 7 9 11 10 8 8 8 6 5 5 6 7 9 11 13 15 17 17 18 19 20 21 22 23 25 26 27 28 29 29 30 31 34 36 37 38 38 39
4 4 4 3 2 6 7 5 6 6 4 4 4 6 6 5 5 4 4 3 4 3 3 3 1 4 3 3 7 10 12 15 15 15 12 10 9 7 6 8 10 10 7 4 5 7 7 7 8 12 14 13 11 10 9 8 7 7 7 8 10 12 13 15 16 17 17 18 18 19 21 22 24 25 27 28 28 29 30 30 32 34 36 37 37 38
3 4 5 2 1 9 7 4 5 7 2 2 2 5 3 5 5 2 3 5 4 1 2 2 3 5 4 6 9 9 11 13 15 15 14 15 16 12 9 9 10 10 7 4 5 7 6 7 9 13 16 15 14 11 9 9 8 8 9 10 12 14 16 16 16 16 17 17 18 19 20 21 23 25 26 28 29 29 30 31 31 33 34 36 36 37
3 4 5 3 1 4 4 3 4 4 3 2 3 3 5 4 6 4 1 0 3 1 3 2 5 5 3 7 9 6 6 8 10 12 14 18 16 11 10 9 8 10 8 5 6 8 6 7 9 12 15 16 16 14 12 12 10 9 10 12 13 16 18 19 18 17 17 17 18 19 20 21 22 24 26 27 28 29 30 31 32 32 33 34 35 36
5 2 4 1 2 2 1 3 2 2 4 5 3 6 4 2 4 4 2 2 3 3 5 1 5 6 2 5 7 5 1 6 9 9 13 18 18 16 15 11 9 11 11 7 7 9 6 7 8 11 15 16 17 18 17 16 15 13 11 13 15 17 20 22 22 20 19 18 18 19 20 21 22 23 25 26 28 29 30 31 32 31 32 33 33 34
5 2 4 1 2 3 3 2 1 3 3 4 4 4 4 3 1 2 2 2 1 2 5 4 5 5 4 6 5 2 4 7 8 8 9 14 18 21 22 17 11 13 13 9 9 10 7 8 9 12 15 17 18 19 18 17 18 17 15 15 17 18 20 22 24 23 22 20 19 20 20 21 22 23 24 26 27 29 30 31 31 32 33 33 33 34
4 4 3 2 1 2 3 1 4 1 2 3 2 2 3 2 4 3 3 4 4 3 3 4 5 4 6 6 6 8 9 8 9 8 7 13 21 25 24 18 11 14 15 11 11 11 7 7 7 11 15 17 19 20 19 16 18 20 20 21 21 22 22 23 24 25 24 23 22 21 21 22 22 23 24 26 27 29 30 31 31 33 33 33 34 35
3 3 4 2 3 1 2 4 7 8 5 3 3 4 3 1 2 2 1 3 4 4 3 2 5 6 6 4 8 10 9 8 9 8 8 15 19 18 14 11 9 11 12 11 13 11 5 4 6 12 17 19 20 20 19 17 17 19 21 23 23 24 24 24 25 26 26 25 24 23 22 22 22 23 24 26 27 28 30 31 32 32 33 33 34 34
3 3 5 2 1 3 5 4 5 9 8 6 7 8 7 5 4 3 3 1 2 3 4 3 5 8 6 4 6 7 7 7 9 8 8 11 9 5 1 2 4 5 8 12 13 9 4 1 8 16 20 23 22 21 20 19 19 20 21 22 22 23 24 25 25 26 27 26 26 25 25 23 23 23 24 25 27 28 29 30 32 32 33 34 34 34
4 4 5 3 4 6 6 5 3 6 4 2 3 5 6 5 5 6 5 3 1 2 3 3 2 7 4 4 5 6 5 6 7 5 3 4 5 5 1 1 5 2 9 13 10 6 4 5 12 19 23 25 25 24 22 20 21 22 22 21 21 21 23 25 26 26 27 27 27 27 27 26 25 24 24 25 26 27 29 30 31 32 34 35 35 35
4 4 4 0 3 3 5 5 2 0 1 2 3 2 4 4 4 6 5 4 3 4 3 3 3 6 4 3 4 5 3 2 1 3 5 6 9 8 4 2 3 2 7 7 5 6 7 10 16 22 25 27 26 26 24 23 24 24 23 21 20 20 22 24 26 27 27 27 27 27 28 29 28 26 25 26 26 27 28 30 31 33 35 36 37 37
6 3 4 3 1 3 4 4 3 2 2 4 3 3 6 6 6 4 2 3 2 6 7 5 6 6 3 5 3 3 3 1 2 3 7 9 10 9 6 5 6 5 3 3 7 9 12 16 21 24 25 26 25 25 26 25 25 24 22 21 21 20 21 23 26 28 28 27 27 27 28 29 30 29 28 27 27 28 28 30 31 33 35 37 38 38
9 4 5 7 6 7 6 6 5 4 2 2 3 6 9 9 10 6 3 3 6 6 8 8 9 5 2 6 6 5 4 2 4 4 8 6 7 6 4 3 2 4 8 12 16 19 20 21 23 23 23 23 23 24 25 24 23 21 19 19 19 20 20 22 24 26 26 26 27 27 28 29 30 31 31 29 28 28 29 30 31 32 35 37 38 37
4 2 7 10 12 12 12 9 5 9 7 6 8 10 10 11 12 9 4 6 8 3 4 10 12 9 8 7 6 6 4 3 6 6 6 1 4 3 2 4 6 9 14 19 23 23 23 22 21 21 21 22 23 23 22 22 22 21 20 19 20 21 20 20 22 22 23 25 26 27 27 27 28 31 32 32 30 29 30 31 31 32 34 36 38 38
4 3 10 11 14 14 11 8 8 12 13 14 13 11 11 12 13 11 10 12 8 4 5 13 9 9 15 12 10 12 8 5 9 10 6 4 5 5 8 10 11 15 20 22 22 21 21 21 21 21 21 21 22 22 21 20 21 22 22 21 21 21 21 21 21 22 22 24 25 26 25 26 28 30 32 33 32 31 31 32 33 33 33 35 37 39
3 6 9 8 13 15 8 6 9 12 12 13 14 14 14 15 15 15 18 17 11 8 12 16 11 12 18 15 12 14 12 11 14 13 8 8 9 10 12 14 17 20 21 19 18 18 19 20 20 20 20 19 19 19 19 18 19 20 21 20 19 20 20 21 22 23 24 24 25 25 24 25 26 28 30 32 33 33 33 33 34 35 35 35 36 39
3 5 7 8 11 14 9 7 9 12 10 9 12 15 16 18 19 21 22 20 15 13 15 17 13 15 16 10 10 14 17 20 21 16 12 13 13 14 15 16 16 16 15 13 14 15 16 16 15 14 13 13 13 14 15 16 17 18 19 19 19 19 20 21 22 23 24 25 25 25 25 26 26 27 28 30 32 33 34 34 35 36 36 36 36 37
5 4 4 7 5 10 10 8 9 10 10 10 11 13 15 17 19 20 19 15 12 12 15 14 14 16 10 7 10 14 15 17 16 14 14 16 15 14 12 10 9 8 8 9 9 11 11 10 9 9 9 10 11 12 14 15 17 17 18 19 19 19 19 20 21 21 22 24 24 24 25 26 27 27 28 28 29 31 33 34 36 37 37 37 37 37
5 3 1 5 4 7 9 8 9 8 6 7 10 13 16 15 14 14 13 11 12 13 14 12 13 14 7 7 11 10 12 13 13 14 17 16 12 8 4 4 5 4 4 5 5 6 7 6 7 8 9 10 11 12 14 15 17 18 19 20 20 20 20 20 20 21 21 22 22 23 24 25 26 27 28 28 28 29 31 34 36 37 38 39 39 38
7 5 2 5 5 8 7 6 9 7 3 7 12 16 17 13 10 9 9 13 15 14 12 11 13 14 8 7 9 7 10 12 11 11 13 8 4 4 5 6 5 4 3 2 1 2 3 4 6 7 8 10 11 12 14 16 18 19 21 22 22 22 23 23 22 22 22 22 22 22 23 24 25 26 27 27 27 28 31 33 35 36 38 39 39 39
7 8 6 5 6 9 6 7 9 6 8 11 10 12 16 15 14 12 12 16 16 12 10 10 12 13 7 8 10 8 8 8 9 8 6 5 9 9 8 9 7 6 6 4 4 3 4 4 5 6 8 10 12 13 15 17 19 20 21 23 23 24 25 25 25 25 24 23 22 22 22 23 25 26 26 26 27 29 31 33 35 36 37 38 39 40
9 9 5 4 4 5 4 8 6 10 12 9 4 8 14 16 18 18 17 17 15 14 13 14 16 16 9 11 13 10 11 11 11 11 10 10 11 11 11 10 8 7 6 5 5 5 6 6 7 8 10 12 14 15 17 18 19 20 21 22 23 24 24 25 26 26 26 25 24 24 24 24 26 27 27 28 28 30 31 33 34 35 36 38 40 41
10 9 5 3 3 2 4 6 10 9 4 3 3 4 7 7 9 11 13 14 14 15 15 17 21 20 13 13 13 10 15 18 15 13 12 12 11 11 10 9 8 7 5 5 6 6 7 8 10 11 12 15 16 17 19 20 21 22 22 22 23 23 24 25 26 26 26 27 27 27 26 26 27 28 28 29 30 31 32 33 34 35 36 38 40 41
7 7 5 5 5 5 6 9 7 4 5 6 8 5 5 7 8 9 10 12 12 15 17 18 20 19 14 11 11 15 21 18 11 8 9 11 11 10 9 8 8 6 5 6 6 6 8 9 10 11 13 14 16 18 19 19 20 22 22 23 23 23 23 24 25 25 26 28 29 29 29 29 30 30 29 29 31 32 33 34 34 35 35 37 39 40
4 4 5 7 6 5 8 9 6 5 10 12 9 4 9 14 13 10 9 9 7 15 23 20 16 14 11 9 13 21 20 11 4 3 6 9 11 11 10 8 7 5 4 4 5 6 8 9 10 11 13 14 14 16 18 19 20 20 21 22 23 24 24 24 25 26 27 28 29 30 31 32 33 33 32 31 31 32 32 33 34 35 35 36 38 39
1 2 2 5 5 4 7 9 8 8 10 11 7 4 12 20 17 10 7 10 6 11 19 15 11 12 10 11 18 21 13 5 5 7 9 11 12 12 10 8 7 5 4 4 6 7 8 9 10 11 12 14 15 16 18 20 21 21 22 22 23 24 25 26 27 27 28 28 29 30 31 33 34 35 35 35 34 32 32 32 33 34 34 35 37 38
2 1 3 5 6 6 8 7 6 6 6 6 6 5 10 18 19 12 7 11 4 10 14 15 13 12 12 15 19 15 6 5 8 11 13 13 12 11 9 8 6 4 3 4 5 7 8 10 11 12 14 15 17 19 20 21 22 22 23 24 24 25 26 26 28 28 29 29 30 30 31 32 34 36 36 37 36 34 33 33 33 33 34 35 36 37
5 3 5 7 9 10 10 9 5 4 5 6 6 6 10 14 13 9 9 7 9 13 14 16 15 13 14 16 15 10 5 8 15 17 16 14 11 9 8 6 5 5 5 6 7 8 9 10 11 13 15 17 18 20 21 22 23 24 25 25 25 26 27 27 29 29 30 31 31 31 31 31 32 34 35 36 36 36 35 34 33 33 33 34 34 35
6 4 4 7 9 9 9 9 6 5 5 6 6 10 15 10 5 8 5 9 18 19 16 18 19 16 16 16 16 16 16 17 19 18 15 13 10 8 6 5 5 5 6 7 8 9 9 10 11 12 14 16 18 20 22 23 24 25 26 26 27 28 28 29 30 30 31 32 32 32 32 31 31 33 34 35 36 36 36 35 33 33 33 32 33 34
7 6 5 5 6 5 5 7 7 6 5 13 13 8 8 6 5 12 14 13 18 21 19 19 19 18 19 20 20 21 20 18 17 15 12 10 8 7 6 5 6 6 6 7 8 10 11 12 13 14 15 16 18 19 21 23 24 25 26 27 28 29 30 31 31 32 32 32 33 34 33 32 32 32 33 35 35 36 36 35 33 32 32 31 31 32
5 7 6 5 6 6 5 6 5 2 5 16 13 5 5 6 10 23 25 16 16 20 19 19 18 16 18 20 20 20 18 16 15 12 10 8 7 6 5 5 5 5 6 8 10 12 13 14 15 15 15 16 17 19 20 22 24 25 26 27 29 30 32 32 33 34 34 34 35 36 35 34 33 31 32 33 34 35 36 34 33 32 31 30 30 31
3 4 4 3 3 3 3 4 3 0 4 9 5 5 13 15 16 23 27 24 23 21 18 18 17 16 16 18 18 18 15 13 13 10 9 7 6 5 4 4 4 5 7 9 11 13 14 14 15 15 15 16 17 18 19 20 23 25 25 27 28 30 32 33 34 34 35 35 36 37 37 37 35 33 31 30 31 33 34 33 32 32 31 30 29 30
1 1 2 2 2 1 2 1 1 3 6 9 10 15 21 21 18 19 22 24 24 20 17 17 16 16 17 16 15 15 13 12 11 10 8 6 4 3 3 4 4 6 8 10 11 13 13 14 15 16 16 17 18 19 20 20 22 24 26 27 28 29 31 33 34 35 35 36 36 37 37 37 36 34 31 29 28 29 30 31 31 31 30 28 28 28
1 2 2 2 3 3 2 1 1 3 7 12 16 18 19 19 18 18 19 21 22 19 18 16 14 14 15 13 12 12 12 11 10 8 7 5 3 2 3 5 6 7 9 10 12 13 14 16 17 18 19 20 20 22 22 22 23 25 26 28 29 30 31 32 34 35 36 36 36 36 36 36 36 34 31 28 27 27 27 28 28 29 29 28 27 27
2 4 2 2 3 3 1 2 4 5 6 10 14 16 18 18 19 18 18 20 20 18 17 15 14 14 14 12 10 10 10 10 9 6 5 3 1 2 4 6 7 8 10 12 13 15 16 18 19 19 20 21 21 22 23 23 24 25 27 29 30 31 32 32 33 34 35 35 36 35 33 34 34 33 31 28 26 25 25 26 26 26 27 25 24 25
5 5 3 2 4 3 1 3 6 6 3 4 9 14 17 18 19 19 19 19 19 18 17 16 14 13 12 11 10 8 6 6 4 2 1 1 3 4 6 7 9 10 11 12 14 16 18 19 20 21 21 21 22 22 22 23 24 24 26 29 30 31 32 33 33 33 33 33 34 34 33 32 32 32 31 29 25 23 22 23 25 26 25 24 22 23
5 5 2 3 5 3 2 9 12 6 1 6 12 15 17 18 19 20 20 20 19 18 17 17 15 13 12 10 8 7 5 3 2 2 3 5 6 7 8 9 10 12 13 14 15 16 17 19 20 21 22 23 23 24 24 24 24 25 26 28 30 31 33 34 34 34 33 33 34 34 34 34 32 31 30 29 28 25 22 21 22 25 26 24 22 22
5 6 6 6 4 3 7 20 21 7 4 11 18 19 19 19 19 20 21 19 19 18 16 15 14 13 12 10 8 7 6 5 4 4 5 5 6 7 9 11 12 14 16 17 18 18 19 20 21 22 23 25 26 26 27 27 27 28 29 30 31 33 34 35 36 37 36 35 34 34 35 35 34 32 31 30 29 29 28 26 24 25 26 26 25 23
Wind_Direction
116 119 157 187 196 188 188 175 155 156 141 136 126 109 148 156 226 257 276 305 91 141 249 234 232 257 260 266 271 274 281 280 268 262 259 260 262 262 260 257 255 256 262 269 270 269 268 268 268 266 264 261 258 257 256 255 254 254 251 249 248 247 247 245 243 241 240 239 239 240 244 246 246 244 242 241 240 238 235 235 234 229 227 229 229 228
94 143 206 217 207 187 177 165 124 103 92 96 120 115 119 154 215 260 258 303 21 140 269 317 281 267 260 261 268 271 276 269 259 254 255 259 262 264 263 261 262 265 271 274 273 272 270 268 266 264 263 261 260 260 259 259 258 257 255 252 249 247 246 246 246 244 243 243 244 246 251 254 252 248 246 244 243 241 238 237 235 230 226 226 226 224
61 189 232 227 194 138 111 126 112 101 88 81 111 118 131 187 246 306 298 314 17 111 271 359 335 277 265 256 260 259 252 257 259 254 255 260 263 266 266 267 268 271 275 276 276 276 275 271 267 264 264 264 264 264 262 262 260 258 257 255 251 247 246 247 247 246 246 245 245 248 251 254 254 252 249 247 245 243 241 240 236 231 226 225 227 229
124 240 243 208 149 109 89 107 108 92 81 87 109 126 188 228 175 259 289 313 6 53 277 339 317 280 281 280 265 258 250 259 266 264 261 259 259 263 267 268 270 273 276 279 280 279 276 272 269 267 267 266 264 263 263 262 262 262 261 259 256 252 250 250 249 249 248 246 245 246 248 250 251 251 250 248 246 244 243 241 237 233 229 225 226 228
199 256 217 125 107 110 108 103 119 119 76 23 131 141 180 198 163 189 280 328 359 6 11 5 324 288 306 322 286 278 267 263 273 277 266 258 256 261 264 265 267 272 276 281 283 281 277 273 272 272 269 267 265 266 268 269 270 271 270 267 263 259 256 254 253 251 249 247 245 245 245 245 245 245 246 245 245 244 243 241 237 234 232 228 227 228
229 266 137 118 71 87 113 120 156 146 122 312 220 171 171 164 152 157 9 34 32 346 333 26 352 290 313 318 280 295 310 280 297 307 281 271 267 263 265 269 270 274 278 281 284 282 279 276 271 268 266 265 268 272 277 277 276 275 273 270 266 263 261 258 257 255 253 251 248 247 246 246 245 244 244 244 244 245 245 244 241 237 234 231 228 228
225 27 99 127 103 86 99 134 193 141 115 239 232 167 148 128 119 119 82 59 77 255 294 55 102 266 303 294 261 274 286 282 299 305 282 273 273 273 278 282 282 283 282 282 284 281 277 275 267 264 264 268 277 284 281 277 275 274 273 271 268 266 264 262 261 259 257 255 253 252 251 251 251 250 250 250 248 248 248 248 248 242 234 230 228 228
167 92 71 92 93 91 108 162 205 134 117 223 224 133 130 119 123 127 101 94 227 250 318 18 124 239 293 267 257 276 287 288 289 279 266 262 268 280 286 285 285 286 280 271 276 275 266 265 246 237 249 271 282 282 277 275 276 276 274 273 270 268 266 264 263 262 261 261 260 259 258 257 257 256 256 255 253 252 251 249 249 244 235 229 228 229
133 150 159 121 90 112 173 216 200 124 102 239 196 126 131 125 127 117 98 100 359 6 314 318 123 210 272 270 294 340 281 280 274 260 260 267 275 283 285 287 282 262 234 206 170 119 108 99 96 98 86 294 291 277 273 274 274 273 271 270 268 267 267 266 266 265 265 264 264 264 263 262 261 260 257 255 254 253 252 250 248 243 237 230 229 231
54 172 189 139 125 181 201 248 203 135 100 177 142 97 76 74 84 78 92 107 36 7 261 243 173 200 270 276 312 11 223 254 265 267 273 283 285 283 286 282 235 223 183 145 130 126 126 116 108 96 77 311 294 280 275 274 272 272 273 272 273 272 271 271 269 269 268 268 267 267 266 266 265 263 260 258 256 253 251 250 246 242 237 231 228 229
336 67 111 107 143 176 149 82 83 137 136 136 108 63 47 31 38 46 58 80 56 292 258 230 189 174 290 277 256 215 211 226 259 291 287 285 290 289 279 233 193 169 140 131 132 144 141 124 128 139 133 199 279 287 289 288 285 284 284 284 284 282 279 277 274 272 271 270 270 269 269 269 268 267 265 263 260 256 251 248 245 241 237 231 228 228
0 63 27 8 137 133 107 65 37 52 108 114 85 75 68 349 9 21 1 44 87 255 266 269 241 136 244 260 253 246 252 240 236 255 265 288 313 282 217 183 151 135 130 125 132 147 130 109 121 125 101 31 302 306 303 299 295 296 298 298 296 293 290 286 281 279 276 274 273 273 272 272 271 270 268 267 264 260 255 250 247 242 236 231 228 228
32 58 303 336 244 164 113 73 36 10 38 82 92 102 96 339 10 354 311 24 227 245 274 302 287 204 236 249 258 263 266 253 230 235 246 262 316 185 182 173 151 140 136 124 124 126 99 89 91 69 43 19 3 350 334 318 308 309 312 313 311 305 298 291 287 284 281 279 278 277 276 275 273 271 270 268 266 263 259 254 249 243 237 233 230 229
287 310 309 46 280 216 157 126 137 271 135 136 139 134 135 131 129 256 267 276 263 257 294 314 261 250 273 263 244 248 260 261 263 274 268 246 198 301 233 199 174 153 149 136 117 109 88 80 72 57 42 28 22 15 3 355 343 337 334 332 330 320 307 298 292 287 284 283 282 281 279 276 272 270 270 269 268 265 261 257 251 245 240 237 235 233
183 277 225 171 210 192 180 177 159 147 153 177 158 136 151 159 161 204 215 211 246 271 299 309 273 201 212 258 239 243 269 275 273 279 272 244 246 273 254 205 184 167 164 159 125 112 91 77 69 59 48 37 31 21 12 9 1 353 349 343 340 332 319 310 302 295 290 288 285 282 279 276 273 271 271 270 269 267 263 259 254 248 241 239 239 238
164 249 249 279 168 162 171 200 140 111 105 229 122 108 175 189 147 135 186 179 176 307 293 253 238 213 209 279 273 265 286 287 273 268 263 258 262 262 243 218 196 176 174 181 144 126 102 82 76 65 54 44 37 24 5 359 358 358 355 348 347 340 329 319 311 305 301 295 289 285 281 278 275 272 271 269 269 268 264 261 257 251 244 238 237 239
145 264 289 353 18 160 155 168 144 134 175 176 140 182 218 178 117 109 232 86 89 254 269 214 251 284 324 293 291 300 289 285 285 275 265 264 262 251 243 238 213 192 192 193 151 137 120 95 86 68 53 43 38 30 10 350 339 344 355 354 351 346 337 327 316 310 306 300 295 290 286 281 277 275 273 272 271 270 268 263 258 253 246 238 235 237
156 222 302 55 177 275 44 106 66 56 127 130 179 212 198 112 84 107 190 350 43 247 271 253 245 280 324 273 307 5 213 256 283 275 259 258 255 254 260 263 243 214 207 198 161 149 130 102 88 61 45 35 30 26 15 355 335 328 337 348 352 348 341 332 321 312 305 301 300 296 290 286 282 279 277 275 273 271 270 264 258 253 246 238 234 234
148 155 308 21 176 294 8 105 75 9 88 134 178 178 122 126 193 112 153 198 152 233 274 293 272 260 212 228 293 330 203 226 254 256 256 257 257 262 268 272 256 217 212 209 176 162 138 103 81 52 37 28 21 15 10 359 342 331 322 327 339 342 337 330 323 316 307 301 301 298 294 290 285 283 280 277 275 271 269 265 257 252 247 240 235 233
151 165 253 313 260 316 20 145 196 205 56 72 95 115 103 139 175 167 157 167 170 197 248 303 314 267 227 214 206 221 223 219 237 254 261 259 260 263 268 277 261 219 220 218 181 167 146 109 73 38 23 14 10 5 2 356 345 336 327 323 328 330 329 325 321 318 311 303 300 298 296 292 288 286 283 280 277 273 270 266 258 252 248 243 238 235
136 170 213 312 339 242 194 212 189 171 159 148 160 177 188 120 112 158 169 124 140 164 193 270 288 264 249 209 187 211 227 219 224 234 243 256 265 268 274 290 276 233 222 202 176 171 156 109 38 11 6 0 358 355 352 349 341 333 328 323 323 322 321 320 318 318 315 307 300 296 295 294 291 287 285 283 280 276 273 268 261 254 249 245 242 240
155 166 168 145 259 205 224 245 193 185 184 170 185 198 187 165 132 155 235 244 123 163 175 184 260 267 251 200 190 209 225 235 236 231 247 272 289 306 312 314 293 244 190 173 171 181 193 26 356 352 352 350 349 346 341 340 336 329 323 320 318 317 317 317 315 315 315 311 303 296 294 292 289 285 283 283 281 278 275 270 264 256 250 247 245 243
116 109 129 162 220 214 238 264 220 214 214 160 204 208 178 168 145 153 206 234 171 210 172 133 262 274 247 189 200 221 240 276 271 232 244 324 13 37 31 288 316 295 162 165 178 206 241 314 338 344 346 343 342 340 333 331 329 326 321 316 314 316 317 317 315 313 312 311 308 300 293 290 287 284 282 282 281 280 277 272 267 259 252 249 249 248
110 111 129 220 306 308 305 316 353 119 185 208 244 181 152 180 157 151 183 179 170 207 164 118 255 263 269 246 236 256 284 2 330 164 120 73 62 56 37 14 14 81 145 166 212 251 274 309 328 337 340 337 335 334 329 325 324 322 317 313 311 315 317 316 314 312 309 309 310 305 297 291 288 286 285 283 281 281 279 275 269 261 254 251 251 251
176 168 131 120 341 331 335 325 293 255 194 203 225 180 170 169 137 124 127 119 208 221 170 169 242 242 272 303 294 310 342 89 198 163 113 88 64 57 65 85 87 81 59 330 308 305 306 313 323 331 334 332 331 329 325 321 320 318 315 313 313 314 314 312 310 309 308 307 308 307 302 296 292 289 288 285 283 283 281 277 271 264 258 254 252 251
177 189 152 160 193 206 211 222 219 199 169 193 215 194 187 175 163 168 154 159 229 223 162 193 240 230 275 320 332 344 345 306 257 185 139 103 48 48 80 91 40 354 340 329 324 323 320 320 324 328 330 327 323 319 316 313 313 313 311 310 310 308 305 304 305 307 308 307 306 306 305 302 297 293 291 289 287 285 283 280 275 268 262 257 254 252
148 206 189 195 206 207 212 215 161 131 151 203 212 191 188 192 186 178 165 193 214 187 165 222 237 242 257 275 290 288 280 274 267 225 182 106 33 37 344 330 330 326 323 321 323 325 324 324 325 325 321 317 313 310 310 309 309 309 309 307 305 303 300 299 301 304 304 304 304 304 305 305 303 298 293 291 290 287 284 281 279 274 268 262 257 253
93 212 208 211 219 222 222 206 157 150 175 200 203 189 189 196 189 185 204 215 198 146 230 237 222 238 254 247 241 252 247 242 258 249 250 317 330 310 309 310 310 313 315 318 323 324 321 319 316 312 309 306 304 304 306 308 307 307 310 311 309 304 300 296 296 295 296 297 297 298 302 305 304 300 296 293 291 289 285 282 280 278 275 269 262 257
110 209 212 204 223 237 230 165 166 178 188 199 200 192 192 193 188 196 214 220 197 176 235 242 209 216 247 246 233 238 231 224 239 246 260 287 287 288 297 299 304 310 313 317 318 314 309 307 304 302 302 301 299 300 304 307 308 309 312 315 314 310 304 298 293 291 291 292 292 295 301 303 301 299 297 294 291 290 287 283 281 280 278 275 269 263
155 215 212 184 217 243 230 176 181 192 193 203 207 200 194 194 195 201 213 219 209 203 232 245 236 236 245 242 236 241 234 231 237 244 254 260 266 279 291 299 305 306 306 307 304 299 298 299 301 301 301 304 306 306 310 313 316 319 319 320 320 318 314 309 304 300 296 295 295 296 299 299 300 300 298 295 293 291 289 285 282 279 278 278 276 271
190 224 199 157 199 249 235 203 190 195 198 205 215 215 206 203 204 208 214 216 210 220 238 247 257 261 248 201 225 237 224 220 224 224 236 250 264 279 290 294 290 282 283 289 287 288 293 294 299 304 309 317 321 322 324 324 327 330 330 329 328 325 321 317 313 310 306 304 303 301 299 298 299 299 298 297 296 294 292 288 284 281 280 279 278 276
187 221 99 130 179 242 236 203 180 189 210 221 231 227 215 210 212 209 211 208 198 211 231 239 251 259 236 189 217 206 172 188 208 220 238 254 268 278 264 222 224 228 243 262 266 276 289 296 307 316 320 325 328 331 333 332 334 337 336 335 335 331 328 324 320 317 314 313 311 307 304 302 299 298 297 297 298 296 294 290 285 283 281 280 280 278
175 182 161 156 195 239 238 172 150 149 181 238 239 226 213 211 211 204 215 221 208 201 209 219 238 247 226 194 215 184 163 194 210 223 245 249 207 188 168 161 164 159 161 182 232 289 317 328 333 336 337 337 336 338 339 336 335 337 336 335 334 331 330 328 326 324 323 321 317 311 308 305 302 300 299 298 297 295 292 289 286 285 283 282 282 278
180 189 191 173 200 232 211 129 122 156 208 230 227 204 201 204 199 197 216 222 214 209 216 228 246 248 215 188 214 199 176 192 186 182 201 165 153 157 144 137 136 128 117 100 82 56 29 17 5 356 349 343 338 335 334 332 331 331 330 329 328 326 326 325 324 324 325 325 322 316 311 306 302 299 298 297 296 293 290 288 286 286 285 283 281 277
183 193 195 181 203 220 153 121 166 214 223 231 211 175 193 201 196 200 218 223 213 212 226 240 251 249 215 192 212 196 151 147 148 145 139 133 140 141 131 128 124 116 104 81 64 41 25 9 352 344 339 337 333 329 328 327 326 327 326 325 323 321 322 321 320 322 323 321 319 317 314 309 303 299 296 294 292 290 289 287 286 286 285 284 281 279
182 185 183 183 189 175 132 172 213 233 254 276 267 203 185 177 176 196 228 237 217 208 218 229 239 244 226 202 210 189 152 142 130 123 128 131 129 126 125 118 103 96 82 59 43 22 10 356 343 335 330 329 327 325 325 324 323 324 323 323 321 320 320 318 317 319 318 316 315 313 311 308 305 301 298 295 291 289 287 287 287 287 287 285 283 281
172 178 184 198 201 200 206 213 228 286 310 267 246 219 170 160 164 183 226 244 220 203 210 222 234 242 233 212 197 172 157 144 118 106 119 127 128 124 117 107 95 86 69 54 35 11 2 351 341 334 329 327 324 323 324 324 323 323 322 320 319 318 319 317 315 315 313 312 312 310 308 306 303 302 300 296 293 291 290 289 289 289 288 286 283 282
165 176 189 206 206 198 215 228 232 242 248 244 235 190 176 186 179 174 212 247 232 203 207 217 230 233 221 192 168 160 154 144 139 154 132 125 129 124 115 109 101 83 59 42 20 5 354 347 346 342 336 333 331 330 332 334 333 332 329 328 325 323 321 319 317 316 313 310 309 308 307 305 302 301 299 297 295 294 292 291 291 291 290 287 285 283
162 85 156 211 211 189 210 227 223 224 239 241 231 192 186 185 165 136 200 243 238 194 198 208 221 221 206 174 158 153 152 178 207 175 146 137 132 125 121 119 108 88 53 23 11 3 356 353 353 348 341 339 339 341 342 341 341 340 339 338 335 331 328 326 323 321 317 313 310 307 305 303 300 299 298 297 297 295 292 291 290 290 289 287 285 284
206 129 164 211 218 207 214 228 228 233 247 238 232 233 195 174 148 130 217 243 196 150 175 192 203 201 186 168 159 155 174 212 181 156 146 140 130 122 122 115 105 93 57 24 11 6 1 355 351 347 344 344 345 345 342 340 341 341 340 340 338 335 334 331 328 326 322 320 317 313 309 305 300 297 296 296 296 294 291 289 287 287 287 286 286 285
199 193 195 212 221 218 219 230 241 247 236 221 218 192 158 146 147 177 226 216 143 140 157 167 167 160 156 157 156 151 143 139 141 143 144 138 129 126 121 105 88 65 40 24 12 10 7 356 352 352 349 345 343 341 338 337 338 338 338 338 336 334 334 332 330 329 327 325 323 320 317 312 305 299 295 294 294 292 291 289 287 286 287 287 286 284
191 196 197 207 218 220 223 228 236 260 233 187 157 149 145 145 196 213 180 133 140 143 139 138 137 131 133 138 138 135 129 128 134 140 140 137 134 127 114 93 76 55 36 26 16 10 5 358 354 354 351 347 343 340 337 336 338 338 337 336 334 333 333 331 330 329 328 327 325 323 321 319 314 308 301 297 294 291 290 289 287 286 285 285 285 283
181 185 191 200 201 202 226 218 217 255 209 150 133 138 165 193 194 149 127 120 138 141 135 137 136 130 129 129 129 132 134 134 138 139 136 134 126 110 97 78 61 46 28 19 8 359 355 352 348 346 347 344 340 339 337 335 335 336 335 334 333 332 331 330 329 329 328 328 326 324 322 321 319 315 310 303 297 293 291 289 287 286 285 284 284 283
184 185 192 201 190 187 214 213 204 258 174 154 150 165 191 193 158 144 138 135 140 143 141 140 138 136 137 134 132 135 137 136 136 135 130 124 114 103 93 68 47 31 12 4 357 350 348 345 342 341 342 338 334 334 333 331 330 331 331 330 329 329 328 327 328 327 327 328 328 325 323 320 319 318 314 309 303 297 294 292 289 287 285 284 283 282
210 195 174 175 184 179 200 214 204 148 165 172 170 133 141 148 151 150 147 143 144 149 149 143 140 140 139 137 135 137 138 136 133 130 124 119 111 102 85 56 27 6 355 351 349 346 344 343 341 341 341 339 336 334 334 333 331 330 329 329 327 327 326 326 326 326 325 326 327 326 324 321 319 318 316 312 307 301 296 293 291 288 286 284 282 281
235 200 97 115 164 110 70 135 162 86 118 139 134 130 136 141 145 148 146 142 143 148 149 148 147 143 143 146 146 142 139 137 132 128 125 121 106 84 61 29 6 355 347 343 343 343 341 342 341 339 340 340 336 334 335 336 333 331 329 329 328 328 328 327 327 326 326 326 326 326 325 322 320 319 317 313 308 302 297 293 290 289 286 283 281 280
280 202 91 110 169 175 149 153 106 77 109 124 128 133 136 139 145 150 148 145 148 151 154 155 154 150 149 154 156 151 146 145 144 140 135 129 107 65 26 9 5 359 350 346 344 341 338 338 337 336 338 337 335 334 334 333 332 330 328 327 327 327 328 328 327 326 326 326 325 325 323 322 319 318 316 314 311 305 299 294 291 289 288 285 282 281
211 173 147 139 164 161 150 136 102 89 110 127 134 143 147 147 151 153 151 151 153 154 157 160 161 161 160 159 164 164 153 148 153 151 145 137 95 16 354 351 349 346 345 343 339 336 335 335 334 334 334 333 332 331 331 331 331 328 324 324 324 324 325 326 325 325 324 324 323 322 320 319 317 316 314 314 313 311 305 299 294 293 294 294 291 287
138 160 171 131 122 104 52 131 121 97 100 161 158 157 158 158 157 156 155 158 160 161 164 166 166 170 170 166 171 177 165 153 150 138 132 328 340 338 332 333 332 330 330 329 329 330 331 330 330 329 329 329 329 328 328 328 327 325 323 321 321 321 321 321 321 322 322 320 318 317 315 314 314 313 311 310 311 311 308 302 297 295 297 302 303 300
137 166 163 111 145 183 197 170 161 138 127 193 179 167 166 167 166 163 162 163 165 168 174 175 173 175 177 177 182 192 197 201 226 273 291 307 320 322 323 326 326 324 325 324 324 325 325 325 325 325 325 326 326 327 327 327 325 324 321 319 319 319 318 318 318 318 318 318 316 314 311 310 310 310 310 309 309 308 305 300 295 290 290 292 294 294
178 182 177 159 175 214 178 171 171 153 106 165 172 170 170 172 172 169 166 166 170 174 179 182 180 177 181 184 189 201 213 224 239 259 277 293 304 311 318 321 320 321 323 323 323 324 324 324 324 323 324 325 325 326 326 325 324 323 321 320 320 319 317 317 316 315 315 315 314 312 309 307 306 306 306 306 308 308 307 304 298 292 289 288 286 284